Location: LDNL
(36.4545°S, 141.6685°E)
Time: 14:03:03
(UTC+11:00)

Tiros 1 despin weight - Visible Passes

Search period start: 23 January 2022 00:00
Search period end: 02 February 2022 00:00
Orbit: 592 x 641 km, 48.2° (Epoch: 22 January)

Date Brightness Start Highest point End Pass type
(mag) Time Alt. Az. Time Alt. Az. Time Alt. Az.
23 Jan ? 05:04:54 10° NE 05:05:12 10° NE 05:05:31 10° NE visible
24 Jan ? 05:17:44 11° N 05:20:56 22° NE 05:24:26 10° E visible
25 Jan ? 05:33:19 15° NNW 05:36:47 44° NE 05:41:07 10° ESE visible
26 Jan ? 04:11:48 14° NE 04:11:48 14° NE 04:14:11 10° E visible
26 Jan ? 05:48:50 14° NW 05:52:46 88° NE 05:57:21 10° SE visible
27 Jan ? 04:27:14 29° NE 04:27:31 29° NE 04:31:29 10° ESE visible
27 Jan ? 06:04:25 10° WNW 06:08:54 52° SSW 06:13:21 10° SE visible
28 Jan ? 04:42:37 50° N 04:43:25 59° NE 04:47:56 10° ESE visible
29 Jan ? 03:20:55 13° E 03:20:55 13° E 03:21:35 10° E visible
29 Jan ? 04:57:57 41° WNW 04:59:28 74° SW 05:04:03 10° SE visible
30 Jan ? 03:36:12 25° E 03:36:12 25° E 03:38:24 10° ESE visible
30 Jan ? 05:13:13 23° W 05:15:38 43° SSW 05:20:01 10° SE visible
31 Jan ? 03:51:26 45° ESE 03:51:26 45° ESE 03:54:41 10° ESE visible
31 Jan ? 05:28:27 12° WSW 05:31:57 28° SSW 05:35:56 10° SE visible
01 Feb ? 04:06:38 55° S 04:06:38 55° S 04:10:43 10° SE visible
01 Feb ? 05:44:48 10° WSW 05:48:24 22° SSW 05:51:57 10° SE visible
